Weather History for EFKS - March, 2013

Change the Weather History Date:

Thursday, March 7, 2013

  Actual Average Record
Temperature  
Mean Temperature 8 °F -  
Max Temperature 19 °F - - ()
Min Temperature -4 °F - - ()
Degree Days  
Heating Degree Days 58    
Moisture  
Dew Point 4 °F    
Average Humidity 84    
Maximum Humidity 92    
Minimum Humidity 73    
Precipitation  
Precipitation 0.00 in 0.04 in - ()
Sea Level Pressure  
Sea Level Pressure 29.59 in    
Wind  
Wind Speed 5 mph ()    
Max Wind Speed 12 mph    
Max Gust Speed -    
Visibility 5.0 miles    
Events Snow    
T = Trace of Precipitation, MM = Missing Value Source: Averaged Metar Reports

Daily Weather History Graph

Daily Weather History Graph

Search for Another Location

Airport or City:

Trip Planner

Search our weather history database for the weather conditions in past years. The results will help you decide how hot, cold, wet, or windy it might be!

Date:

Astronomy

Mar. 07, 2013 Rise Set
Actual Time 6:53 AM EET 5:36 PM EET
Civil Twilight 6:02 AM EET 6:27 PM EET
Nautical Twilight 5:02 AM EET 7:27 PM EET
Astronomical Twilight 3:59 AM EET 8:31 PM EET
Moon 5:22 AM EET (3/7) 11:20 AM EET (3/7)
Length of Visible Light 12h 25m
Length of Day
10h 43m
Waning Crescent, 23% of the Moon is Illuminated
Mar 7
Waning Crescent
Mar 11
New
Mar 19
First Quarter
Mar 27
Full
Apr 3
Last Quarter

Hourly Weather History & Observations

Time (EET) Temp. Windchill Dew Point Humidity Pressure Visibility Wind Dir Wind Speed Gust Speed Precip Events Conditions
12:20 AM 1.4 °F - -2.2 °F 85% 29.30 in 6.2 mi WNW 2.3 mph - N/A Snow Light Snow Showers
12:50 AM 1.4 °F -6.2 °F -2.2 °F 85% 29.30 in 6.2 mi NW 3.5 mph - N/A Snow Light Snow Showers
1:20 AM -2.2 °F - -5.8 °F 85% 29.33 in 6.2 mi NNW 2.3 mph - N/A Snow Light Snow
1:50 AM -2.2 °F -10.4 °F -4.0 °F 92% 29.33 in 6.2 mi WNW 3.5 mph - N/A   Partly Cloudy
2:20 AM -4.0 °F -16.3 °F -5.8 °F 92% 29.30 in 6.2 mi WNW 5.8 mph - N/A Snow Light Snow Showers
2:50 AM -2.2 °F -15.6 °F -5.8 °F 85% 29.33 in 6.2 mi WNW 6.9 mph - N/A Snow Light Snow Showers
3:20 AM -2.2 °F -10.4 °F -4.0 °F 92% 29.33 in 6.2 mi NW 3.5 mph - N/A Snow Light Snow Showers
3:50 AM -2.2 °F -12.5 °F -5.8 °F 85% 29.33 in 0.6 mi NW 4.6 mph - N/A Snow Snow Showers
4:20 AM -2.2 °F -12.5 °F -5.8 °F 85% 29.36 in 3.7 mi NW 4.6 mph - N/A Snow Light Snow
4:50 AM -2.2 °F -15.6 °F -5.8 °F 85% 29.36 in 5.0 mi NW 6.9 mph - N/A Snow Light Snow
5:20 AM -4.0 °F -16.3 °F -7.6 °F 85% 29.39 in 3.7 mi WNW 5.8 mph - N/A Snow Light Snow
5:50 AM -2.2 °F -15.6 °F -5.8 °F 85% 29.39 in 1.9 mi WNW 6.9 mph - N/A Snow Light Snow
6:20 AM -2.2 °F -14.2 °F -4.0 °F 92% 29.42 in 1.4 mi WNW 5.8 mph - N/A Snow Light Snow
6:50 AM 3.2 °F -6.2 °F 1.4 °F 92% 29.42 in 1.6 mi NNW 4.6 mph - N/A Snow Light Snow
7:20 AM 5.0 °F -4.1 °F 1.4 °F 85% 29.44 in 6.2 mi NW 4.6 mph - N/A Snow Light Snow
7:50 AM 3.2 °F -6.2 °F -0.4 °F 85% 29.44 in 6.2 mi WNW 4.6 mph - N/A Snow Light Snow
8:20 AM 6.8 °F -5.9 °F 5.0 °F 92% 29.47 in - North 8.1 mph - N/A   Clear
8:58 AM 8.6 °F -2.6 °F 5.0 °F 85% 29.50 in - NNW 6.9 mph - N/A   Clear
9:20 AM 8.6 °F -1.3 °F 6.8 °F 92% 29.50 in - NNW 5.8 mph - N/A   Clear
10:20 AM 10.4 °F -1.5 °F 6.8 °F 85% 29.53 in - NNW 8.1 mph - N/A   Clear
10:50 AM 12.2 °F -0.2 °F 8.6 °F 85% 29.56 in - NNW 9.2 mph - N/A   Clear
11:20 AM 14.0 °F 0.5 °F 10.4 °F 86% 29.59 in 6.2 mi NNW 11.5 mph - N/A Snow Light Snow Showers
11:50 AM 15.8 °F 3.4 °F 12.2 °F 86% 29.59 in 6.2 mi NNW 10.4 mph - N/A   Partly Cloudy
12:20 PM 15.8 °F 4.2 °F 12.2 °F 86% 29.62 in 6.2 mi NNW 9.2 mph - N/A Snow Light Snow Showers
12:50 PM 17.6 °F 6.4 °F 12.2 °F 79% 29.65 in - NNW 9.2 mph - N/A   Clear
1:20 PM 17.6 °F 5.7 °F 12.2 °F 79% 29.68 in - NNW 10.4 mph - N/A   Clear
1:50 PM 19.4 °F 8.6 °F 12.2 °F 74% 29.68 in - NNW 9.2 mph - N/A   Clear
2:20 PM 19.4 °F 7.9 °F 14.0 °F 80% 29.71 in - NW 10.4 mph - N/A   Clear
2:50 PM 19.4 °F 9.5 °F 14.0 °F 80% 29.71 in - NW 8.1 mph - N/A   Clear
3:20 PM 19.4 °F 8.6 °F 14.0 °F 80% 29.71 in - NW 9.2 mph - N/A   Clear
3:50 PM 19.4 °F 8.6 °F 14.0 °F 80% 29.74 in 6.2 mi NW 9.2 mph - N/A   Partly Cloudy
4:20 PM 19.4 °F 8.6 °F 14.0 °F 80% 29.74 in - NW 9.2 mph - N/A   Clear
4:50 PM 19.4 °F 9.5 °F 14.0 °F 80% 29.74 in 6.2 mi WNW 8.1 mph - N/A   Mostly Cloudy
5:20 PM 19.4 °F 8.6 °F 12.2 °F 74% 29.77 in 6.2 mi NW 9.2 mph - N/A Snow Light Snow Showers
5:50 PM 17.6 °F 6.4 °F 10.4 °F 73% 29.77 in - NW 9.2 mph - N/A   Clear
6:20 PM 15.8 °F 6.1 °F 8.6 °F 73% 29.80 in - NW 6.9 mph - N/A   Clear
6:50 PM 14.0 °F 3.9 °F 6.8 °F 73% 29.80 in - NW 6.9 mph - N/A   Clear
7:20 PM 12.2 °F 2.9 °F 6.8 °F 79% 29.80 in - NW 5.8 mph - N/A   Clear
7:50 PM 10.4 °F 0.8 °F 6.8 °F 85% 29.80 in - NW 5.8 mph - N/A   Clear
8:20 PM 8.6 °F -1.3 °F 5.0 °F 85% 29.80 in - WNW 5.8 mph - N/A   Clear
8:50 PM 6.8 °F -4.8 °F 5.0 °F 92% 29.80 in - NW 6.9 mph - N/A   Clear
9:20 PM 6.8 °F -4.8 °F 3.2 °F 85% 29.83 in - NW 6.9 mph - N/A   Clear
9:50 PM 6.8 °F -3.5 °F 3.2 °F 85% 29.83 in - NW 5.8 mph - N/A   Clear
10:20 PM 5.0 °F -6.9 °F 3.2 °F 92% 29.83 in - NW 6.9 mph - N/A   Clear
10:50 PM 5.0 °F -6.9 °F 3.2 °F 92% 29.83 in - NW 6.9 mph - N/A   Clear
11:20 PM 5.0 °F -5.6 °F 1.4 °F 85% 29.83 in - NW 5.8 mph - N/A   Clear
11:50 PM 3.2 °F - 1.4 °F 92% 29.86 in - ESE 2.3 mph - N/A   Clear